Ladysmith, WI

12:30 PM CDT on May 26, 2017 (GMT -0500)
Rusk County

Weather History for KRCX - December, 2012

Change the Weather History Date:

Tuesday, December 4, 2012

  Actual Average (KPBH) Record (KPBH)
Temperature  
Mean Temperature 30 °F -  
Max Temperature 41 °F 30 °F 53 °F (1998)
Min Temperature 19 °F 18 °F -5 °F (2014)
Degree Days  
Heating Degree Days 35    
Moisture  
Dew Point 20 °F    
Average Humidity 66    
Maximum Humidity 87    
Minimum Humidity 44    
Precipitation  
Precipitation 0.00 in - - ()
Sea Level Pressure  
Sea Level Pressure 30.09 in    
Wind  
Wind Speed 11 mph (WNW)    
Max Wind Speed 20 mph    
Max Gust Speed 24 mph    
Visibility 10 miles    
Events      
Averages and records for this station are not official NWS values.
T = Trace of Precipitation, MM = Missing Value Source: NWS Daily Summary

Daily Weather History Graph

Daily Weather History Graph

Search for Another Location

Airport or City:

Trip Planner

Search our weather history database for the weather conditions in past years. The results will help you decide how hot, cold, wet, or windy it might be!

Date:

Astronomy

Dec. 04, 2012 Rise Set
Actual Time 7:27 AM CST 4:21 PM CST
Civil Twilight 6:53 AM CST 4:54 PM CST
Nautical Twilight 6:16 AM CST 5:32 PM CST
Astronomical Twilight 5:40 AM CST 6:07 PM CST
Moon 10:20 PM CST (12/4) 11:11 AM CST (12/4)
Length of Visible Light 10h 00m
Length of Day
8h 53m
Waning Gibbous, 69% of the Moon is Illuminated
Dec 4
Waning Gibbous
Dec 6
Last Quarter
Dec 13
New
Dec 19
First Quarter
Dec 28
Full

Hourly Weather History & Observations

Time (CST) Temp. Windchill Dew Point Humidity Pressure Visibility Wind Dir Wind Speed Gust Speed Precip Events Conditions
12:15 AM 39.2 °F 33.0 °F 32.0 °F 75% 29.84 in 10.0 mi WSW 9.2 mph - N/A   Clear
12:35 AM 39.2 °F 32.0 °F 32.0 °F 75% 29.84 in 10.0 mi WSW 11.5 mph 16.1 mph N/A   Clear
12:55 AM 41.0 °F 34.7 °F 32.0 °F 70% 29.84 in 10.0 mi WSW 10.4 mph - N/A   Clear
1:15 AM 39.2 °F 33.6 °F 32.0 °F 75% 29.85 in 10.0 mi WSW 8.1 mph 16.1 mph N/A   Clear
1:35 AM 39.2 °F 32.5 °F 30.2 °F 70% 29.85 in 10.0 mi WSW 10.4 mph - N/A   Clear
1:55 AM 39.2 °F 32.0 °F 30.2 °F 70% 29.85 in 10.0 mi WSW 11.5 mph - N/A   Clear
2:15 AM 39.2 °F 32.0 °F 30.2 °F 70% 29.86 in 10.0 mi WSW 11.5 mph 17.3 mph N/A   Clear
2:35 AM 39.2 °F 32.0 °F 30.2 °F 70% 29.88 in 10.0 mi West 11.5 mph 17.3 mph N/A   Clear
2:55 AM 37.4 °F 31.4 °F 30.2 °F 75% 29.88 in 10.0 mi WSW 8.1 mph - N/A   Clear
3:15 AM 37.4 °F 30.8 °F 30.2 °F 75% 29.88 in 10.0 mi WSW 9.2 mph - N/A   Clear
3:35 AM 37.4 °F 29.8 °F 30.2 °F 75% 29.88 in 10.0 mi WSW 11.5 mph - N/A   Clear
3:55 AM 35.6 °F 29.9 °F 30.2 °F 81% 29.88 in 10.0 mi WSW 6.9 mph - N/A   Clear
4:15 AM 35.6 °F 27.5 °F 30.2 °F 81% 29.89 in 10.0 mi West 11.5 mph - N/A   Clear
4:35 AM 35.6 °F 29.2 °F 28.4 °F 75% 29.90 in 10.0 mi WSW 8.1 mph - N/A   Clear
4:55 AM 35.6 °F 30.7 °F 28.4 °F 75% 29.90 in 10.0 mi West 5.8 mph - N/A   Clear
5:15 AM 33.8 °F 30.8 °F 28.4 °F 81% 29.92 in 10.0 mi West 3.5 mph - N/A   Clear
5:35 AM 32.0 °F 25.6 °F 28.4 °F 87% 29.92 in 10.0 mi West 6.9 mph - N/A   Clear
5:55 AM 33.8 °F 25.8 °F 28.4 °F 81% 29.93 in 10.0 mi West 10.4 mph - N/A   Clear
6:15 AM 33.8 °F 25.3 °F 26.6 °F 75% 29.94 in 10.0 mi West 11.5 mph 17.3 mph N/A   Clear
6:35 AM 32.0 °F 24.2 °F 26.6 °F 80% 29.95 in 10.0 mi West 9.2 mph - N/A   Clear
6:55 AM 32.0 °F 23.0 °F 26.6 °F 80% 29.97 in 10.0 mi West 11.5 mph - N/A   Clear
7:15 AM 32.0 °F 24.8 °F 26.6 °F 80% 29.97 in 10.0 mi West 8.1 mph - N/A   Clear
7:35 AM 32.0 °F 24.2 °F 24.8 °F 75% 29.97 in 10.0 mi West 9.2 mph - N/A   Clear
7:55 AM 32.0 °F 22.5 °F 23.0 °F 69% 29.99 in 10.0 mi West 12.7 mph 18.4 mph N/A   Clear
8:15 AM 32.0 °F 21.6 °F 21.2 °F 64% 30.00 in 10.0 mi West 15.0 mph 23.0 mph N/A   Clear
8:35 AM 32.0 °F 22.5 °F 21.2 °F 64% 30.01 in 10.0 mi West 12.7 mph - N/A   Clear
8:55 AM 32.0 °F 22.1 °F 23.0 °F 69% 30.01 in 10.0 mi West 13.8 mph - N/A   Clear
9:15 AM 32.0 °F 20.8 °F 21.2 °F 64% 30.03 in 10.0 mi West 17.3 mph 24.2 mph N/A   Clear
9:35 AM 32.0 °F 21.2 °F 21.2 °F 64% 30.03 in 10.0 mi West 16.1 mph - N/A   Clear
9:55 AM 32.0 °F 22.5 °F 21.2 °F 64% 30.05 in 10.0 mi WNW 12.7 mph - N/A   Clear
10:15 AM 32.0 °F 21.2 °F 21.2 °F 64% 30.05 in 10.0 mi West 16.1 mph - N/A   Clear
10:35 AM 32.0 °F 23.6 °F 21.2 °F 64% 30.06 in 10.0 mi West 10.4 mph - N/A   Clear
10:55 AM 32.0 °F 22.1 °F 21.2 °F 64% 30.06 in 10.0 mi West 13.8 mph - N/A   Clear
11:15 AM 32.0 °F 22.1 °F 21.2 °F 64% 30.06 in 10.0 mi West 13.8 mph - N/A   Clear
11:35 AM 32.0 °F 22.1 °F 21.2 °F 64% 30.07 in 10.0 mi West 13.8 mph 19.6 mph N/A   Clear
11:55 AM 32.0 °F 20.1 °F 19.4 °F 60% 30.08 in 10.0 mi West 19.6 mph - N/A   Clear
12:15 PM 32.0 °F 22.1 °F 17.6 °F 55% 30.08 in 10.0 mi NW 13.8 mph - N/A   Clear
12:35 PM 32.0 °F 23.6 °F 17.6 °F 55% 30.09 in 10.0 mi WNW 10.4 mph - N/A   Clear
12:55 PM 32.0 °F 21.6 °F 17.6 °F 55% 30.10 in 10.0 mi West 15.0 mph 23.0 mph N/A   Clear
1:15 PM 32.0 °F 21.2 °F 15.8 °F 51% 30.11 in 10.0 mi WNW 16.1 mph 21.9 mph N/A   Clear
1:35 PM 32.0 °F 20.8 °F 15.8 °F 51% 30.12 in 10.0 mi West 17.3 mph - N/A   Clear
1:55 PM 32.0 °F 21.6 °F 14.0 °F 48% 30.12 in 10.0 mi WNW 15.0 mph - N/A   Clear
2:15 PM 32.0 °F 23.0 °F 14.0 °F 48% 30.14 in 10.0 mi West 11.5 mph 18.4 mph N/A   Clear
2:35 PM 32.0 °F 21.6 °F 12.2 °F 44% 30.15 in 10.0 mi West 15.0 mph 19.6 mph N/A   Clear
2:55 PM 30.2 °F 19.3 °F 12.2 °F 47% 30.16 in 10.0 mi WNW 15.0 mph - N/A   Clear
3:15 PM 30.2 °F 18.9 °F 12.2 °F 47% 30.17 in 10.0 mi WNW 16.1 mph - N/A   Clear
3:35 PM 28.4 °F 18.5 °F 12.2 °F 51% 30.17 in 10.0 mi WNW 11.5 mph - N/A   Clear
3:55 PM 28.4 °F 17.5 °F 10.4 °F 47% 30.19 in 10.0 mi WNW 13.8 mph 18.4 mph N/A   Clear
4:15 PM 28.4 °F 18.5 °F 10.4 °F 47% 30.19 in 10.0 mi NW 11.5 mph - N/A   Clear
4:35 PM 26.6 °F 18.2 °F 10.4 °F 51% 30.20 in 10.0 mi NW 8.1 mph - N/A   Clear
4:55 PM 26.6 °F 18.2 °F 12.2 °F 55% 30.22 in 10.0 mi WNW 8.1 mph - N/A   Clear
5:35 PM 24.8 °F 16.1 °F 12.2 °F 59% 30.24 in 10.0 mi WNW 8.1 mph - N/A   Clear
5:55 PM 24.8 °F 16.9 °F 12.2 °F 59% 30.25 in 10.0 mi NW 6.9 mph - N/A   Clear
6:15 PM 24.8 °F 15.3 °F 12.2 °F 59% 30.26 in 10.0 mi NW 9.2 mph - N/A   Clear
6:35 PM 24.8 °F 16.1 °F 12.2 °F 59% 30.26 in 10.0 mi NW 8.1 mph - N/A   Clear
6:55 PM 23.0 °F 13.9 °F 12.2 °F 63% 30.27 in 10.0 mi NW 8.1 mph - N/A   Clear
7:15 PM 23.0 °F 14.7 °F 12.2 °F 63% 30.27 in 10.0 mi NW 6.9 mph - N/A   Clear
7:35 PM 23.0 °F 13.1 °F 12.2 °F 63% 30.27 in 10.0 mi NW 9.2 mph - N/A   Clear
7:55 PM 23.0 °F 13.1 °F 12.2 °F 63% 30.28 in 10.0 mi NW 9.2 mph - N/A   Clear
8:15 PM 23.0 °F 13.1 °F 12.2 °F 63% 30.30 in 10.0 mi NW 9.2 mph - N/A   Clear
8:35 PM 21.2 °F 11.7 °F 12.2 °F 68% 30.30 in 10.0 mi NW 8.1 mph - N/A   Clear
8:55 PM 21.2 °F 9.5 °F 12.2 °F 68% 30.31 in 10.0 mi NW 11.5 mph - N/A   Clear
9:15 PM 21.2 °F 11.7 °F 12.2 °F 68% 30.31 in 10.0 mi NNW 8.1 mph - N/A   Clear
9:35 PM 21.2 °F 10.9 °F 12.2 °F 68% 30.31 in 10.0 mi North 9.2 mph - N/A   Clear
9:55 PM 21.2 °F 12.6 °F 12.2 °F 68% 30.31 in 10.0 mi North 6.9 mph - N/A   Clear
10:15 PM 21.2 °F 11.7 °F 12.2 °F 68% 30.32 in 10.0 mi North 8.1 mph - N/A   Clear
10:35 PM 19.4 °F 8.6 °F 12.2 °F 74% 30.33 in 10.0 mi North 9.2 mph - N/A   Clear
10:55 PM 19.4 °F 12.8 °F 12.2 °F 74% 30.34 in 10.0 mi NW 4.6 mph - N/A   Clear
11:15 PM 19.4 °F 12.8 °F 12.2 °F 74% 30.35 in 10.0 mi NW 4.6 mph - N/A   Clear
11:35 PM 19.4 °F 12.8 °F 12.2 °F 74% 30.35 in 10.0 mi NW 4.6 mph - N/A   Clear
11:55 PM 19.4 °F 14.3 °F 12.2 °F 74% 30.36 in 10.0 mi NNW 3.5 mph - N/A   Clear